Location: Borotín
(49.5055°N, 14.6142°E)
Time: 12:08:57
(UTC+00:00)

USA 307 - Pass Details

Date: 27 May 2022
Orbit: 552 x 554 km, 54.0° (Epoch: 17 June)

Event Time Altitude Azimuth Distance (km) Brightness Sun altitude
Exits shadow 01:43:46 - 267° (W) 2,342 5.6 -10.3°
Reaches altitude 10° 01:45:04 10° 271° (W) 1,840 5.1 -10.2°
Maximum altitude 01:49:09 51° 348° (NNW) 707 3.6 -9.8°
Drops below altitude 10° 01:53:15 10° 65° (ENE) 1,846 6.7 -9.3°
Sets 01:55:33 0° 71° (ENE) 2,743 7.6 -9.1°
